This demonstration page uses our WeatherBlox Daily Observations layout. Learn more.

Left ArrowRight Arrow

Hourly Observations for May 18, 2019

Temp ( °F °C ) Dew Point ( °F °C ) Humidity (%) Winds ( mph kmh ) Pressure ( in mb ) Visibility ( mi km ) Precip ( " mm )
12:15 am 00:15 Clear 73 22.7 58 14.6 60 60 SSW 28 44 29.37 994 10 16 N/A
12:35 am 00:35 Clear 70 21.2 60 15.3 69 69 W 14 22 29.39 995 10 16 N/A
12:55 am 00:55 Clear 65 18.6 58 14.7 78 78 WSW 13 20 29.42 996 10 16 N/A
1:15 am 01:15 Clear 60 15.5 54 12.4 82 82 WNW 16 26 29.46 997 10 16 N/A
1:35 am 01:35 Clear 56 13.5 53 11.7 89 89 WNW 16 26 29.49 999 10 16 N/A
1:55 am 01:55 Mostly Cloudy 55 13 53 11.5 91 91 WNW 13 20 29.50 999 10 16 N/A
2:15 am 02:15 Cloudy 55 12.6 52 11.1 91 91 WNW 17 28 29.51 999 10 16 N/A
2:35 am 02:35 Cloudy 55 12.5 51 10.8 89 89 WNW 17 28 29.53 1000 10 16 N/A
2:55 am 02:55 Cloudy 54 12.3 51 10.7 90 90 W 15 24 29.55 1001 10 16 N/A
3:15 am 03:15 Cloudy 54 12.2 51 10.6 90 90 WNW 13 20 29.55 1001 10 16 N/A
3:35 am 03:35 Cloudy 54 12.3 51 10.5 89 89 WNW 10 17 29.55 1001 10 16 N/A
3:55 am 03:55 Cloudy 54 12.3 51 10.5 89 89 WNW 9 15 29.55 1001 10 16 N/A
4:15 am 04:15 Cloudy 54 12.2 51 10.5 89 89 WNW 8 13 29.55 1001 10 16 N/A
4:35 am 04:35 Cloudy 54 12 51 10.5 91 91 NW 6 9 29.57 1001 10 16 N/A
4:55 am 04:55 Partly Cloudy 53 11.5 50 10.2 92 92 WNW 7 11 29.56 1001 10 16 N/A
5:15 am 05:15 Partly Cloudy 53 11.5 50 10.2 92 92 WNW 9 15 29.59 1002 10 16 N/A
5:35 am 05:35 Cloudy 53 11.5 51 10.3 92 92 WNW 7 11 29.59 1002 10 16 N/A
5:55 am 05:55 Cloudy 53 11.7 51 10.3 91 91 WNW 9 15 29.59 1002 10 16 N/A
6:15 am 06:15 Cloudy 53 11.5 50 9.8 89 89 NW 9 15 29.60 1002 10 16 N/A
6:35 am 06:35 Cloudy 52 11.3 50 9.8 91 91 NW 9 15 29.61 1003 10 16 N/A
6:55 am 06:55 Cloudy 52 11 49 9.5 91 91 NW 12 19 29.61 1003 10 16 N/A
7:15 am 07:15 Cloudy 51 10.5 49 9.2 92 92 NW 9 15 29.63 1003 10 16 N/A
7:35 am 07:35 Cloudy 51 10.6 49 9.3 92 92 NW 12 19 29.63 1003 10 16 N/A
7:55 am 07:55 Cloudy 51 10.8 49 9.5 92 92 WNW 9 15 29.63 1003 10 16 N/A
8:15 am 08:15 Cloudy 52 11 49 9.5 91 91 NW 12 19 29.62 1003 10 16 N/A
8:35 am 08:35 Cloudy 54 12 50 9.8 87 87 NW 9 15 29.63 1003 10 16 N/A
8:55 am 08:55 Cloudy 55 12.8 50 9.9 83 83 W 8 13 29.63 1003 10 16 N/A
9:15 am 09:15 Mostly Cloudy 55 12.8 50 9.9 83 83 WNW 8 13 29.65 1004 10 16 N/A
9:35 am 09:35 Partly Cloudy 57 13.8 51 10.3 80 80 WNW 12 19 29.63 1003 10 16 N/A
9:55 am 09:55 Sunny 58 14.4 50 10 75 75 NW 12 19 29.60 1003 10 16 N/A
10:15 am 10:15 Sunny 59 14.8 50 9.9 73 73 NW 10 17 29.60 1002 10 16 N/A
10:35 am 10:35 Sunny 60 15.8 50 10.1 69 69 NW 8 13 29.59 1002 10 16 N/A
10:55 am 10:55 Sunny 62 16.8 50 10.2 65 65 NW 8 13 29.59 1002 10 16 N/A
11:15 am 11:15 Sunny 63 17.2 50 9.9 62 62 NW 7 11 29.59 1002 10 16 N/A
11:35 am 11:35 Sunny 64 17.9 50 10.2 61 61 NW 8 13 29.59 1002 10 16 N/A
11:55 am 11:55 Sunny 66 19.1 51 10.4 57 57 NNW 7 11 29.58 1002 10 16 N/A
12:15 pm 12:15 Sunny 66 18.8 50 10.2 58 58 N 7 11 29.56 1001 10 16 N/A
12:35 pm 12:35 Sunny 67 19.2 50 10.2 56 56 NNW 9 15 29.54 1000 10 16 N/A
12:55 pm 12:55 Sunny 67 19.7 51 10.6 56 56 NNW 10 17 29.52 1000 10 16 N/A
1:15 pm 13:15 Sunny 68 20.1 51 10.3 53 53 N 7 11 29.53 1000 10 16 N/A
1:35 pm 13:35 Sunny 68 20.2 51 10.5 54 54 NNW 5 7 29.54 1000 10 16 N/A
1:55 pm 13:55 Sunny 70 21 49 9.4 48 48 N 10 17 29.51 999 10 16 N/A
2:15 pm 14:15 Sunny 70 21.1 51 10.4 51 51 NNW 7 11 29.51 999 10 16 N/A
2:35 pm 14:35 Sunny 71 21.5 51 10.8 51 51 N 5 7 29.51 999 10 16 N/A
2:55 pm 14:55 Sunny 71 21.5 51 10.5 50 50 N 5 7 29.51 999 10 16 N/A
3:15 pm 15:15 Sunny 71 21.5 51 10.4 49 49 N 9 15 29.52 1000 10 16 N/A
3:55 pm 15:55 Partly Cloudy 71 21.5 51 10.6 50 50 N 8 13 29.52 1000 10 16 N/A
4:15 pm 16:15 Partly Cloudy 70 21 52 11.3 54 54 N 13 20 29.52 1000 10 16 N/A
4:35 pm 16:35 Partly Cloudy 70 20.9 52 11.2 54 54 NNE 12 19 29.52 1000 10 16 N/A
4:55 pm 16:55 Mostly Cloudy 68 20.1 54 12.1 60 60 NE 15 24 29.54 1000 10 16 N/A
5:35 pm 17:35 Sunny 69 20.4 53 11.4 56 56 N 18 30 29.54 1000 10 16 N/A
5:55 pm 17:55 Partly Cloudy 68 20 52 11.2 57 57 N 17 28 29.54 1000 10 16 N/A
6:15 pm 18:15 Mostly Cloudy 67 19.5 52 11 58 58 N 22 35 29.54 1000 10 16 N/A
6:35 pm 18:35 Partly Cloudy 67 19.2 51 10.8 58 58 N 22 35 29.55 1001 10 16 N/A
6:55 pm 18:55 Sunny 65 18.3 51 10.6 61 61 NNE 20 31 29.56 1001 10 16 N/A
7:15 pm 19:15 Partly Cloudy 64 17.9 50 10.1 60 60 N 21 33 29.58 1002 10 16 N/A
7:35 pm 19:35 Cloudy 63 17.2 50 9.9 62 62 N 22 35 29.59 1002 10 16 N/A
7:55 pm 19:55 Cloudy 62 16.7 49 9.3 62 62 N 20 31 29.60 1002 10 16 N/A
8:15 pm 20:15 Partly Cloudy 60 15.8 49 9.4 66 66 N 21 33 29.60 1002 10 16 N/A
8:35 pm 20:35 Sunny 60 15.3 48 9 66 66 N 15 24 29.63 1003 10 16 N/A
8:55 pm 20:55 Clear 59 15.1 48 9.1 68 68 N 16 26 29.64 1004 10 16 N/A
9:15 pm 21:15 Clear 59 14.8 48 9 68 68 N 15 24 29.65 1004 10 16 N/A
9:35 pm 21:35 Partly Cloudy 58 14.7 47 8.4 66 66 NNW 17 28 29.66 1004 10 16 N/A
9:55 pm 21:55 Clear 58 14.3 46 8 66 66 N 13 20 29.67 1005 10 16 N/A
10:15 pm 22:15 Clear 57 13.7 46 8 69 69 N 15 24 29.68 1005 10 16 N/A
10:35 pm 22:35 Clear 56 13.5 46 7.8 69 69 N 15 24 29.68 1005 10 16 N/A
10:55 pm 22:55 Clear 55 13 46 7.5 69 69 N 14 22 29.70 1006 10 16 N/A
11:15 pm 23:15 Clear 55 12.8 45 7 68 68 N 14 22 29.72 1006 10 16 N/A
11:35 pm 23:35 Clear 55 12.5 44 6.7 68 68 N 9 15 29.72 1006 10 16 N/A
11:55 pm 23:55 Clear 54 12.2 44 6.8 70 70 NNW 12 19 29.74 1007 10 16 N/A

Powered by AerisWeather